This is the latest recevied weather packets stored in our database for station/object HK6RM-18. If no packets are shown the sender has not sent any weather packets the latest 10 day(s).
| Time | Temp. | Humidity | Pressure | Rain* | Wind** | Luminosity | Snow |
|---|---|---|---|---|---|---|---|
| 1777645007 | 21.67° C | 63% | 1015 hPa | 0 mm | - | - | - |
| 1777644106 | 22.22° C | 63% | 1015 hPa | 0 mm | - | - | - |
| 1777643206 | 22.78° C | 63% | 1014 hPa | 0 mm | - | - | - |
| 1777642305 | 18.33° C | 77% | 1014 hPa | 0 mm | - | - | - |
| 1777641405 | 18.89° C | 77% | 1014 hPa | 0 mm | - | - | - |
| 1777640504 | 19.44° C | 77% | 1014 hPa | 0 mm | - | - | - |
| 1777639603 | 20° C | 77% | 1014 hPa | 0 mm | - | - | - |
| 1777638703 | 16.67° C | 78% | 1014 hPa | 0 mm | - | - | - |
| 1777637801 | 17.22° C | 78% | 1014 hPa | 0 mm | - | - | - |
| 1777636901 | 17.78° C | 78% | 1014 hPa | 0 mm | - | - | - |
| 1777635999 | 18.33° C | 78% | 1014 hPa | 0 mm | - | - | - |
| 1777635099 | 17.78° C | 78% | 1014 hPa | 0 mm | - | - | - |
| 1777634195 | 18.33° C | 78% | 1014 hPa | 0 mm | - | - | - |
| 1777633292 | 17.78° C | 79% | 1014 hPa | 0 mm | - | - | - |
| 1777632389 | 18.33° C | 79% | 1014 hPa | 0 mm | - | - | - |
| 1777631489 | 17.78° C | 80% | 1014 hPa | 0 mm | - | - | - |
| 1777630588 | 18.33° C | 80% | 1014 hPa | 0 mm | - | - | - |
| 1777629688 | 17.78° C | 78% | 1014 hPa | 0 mm | - | - | - |
| 1777628787 | 18.33° C | 78% | 1014 hPa | 0 mm | - | - | - |
| 1777627887 | 17.78° C | 80% | 1014 hPa | 0 mm | - | - | - |
| 1777626986 | 18.33° C | 80% | 1014 hPa | 0 mm | - | - | - |
| 1777626085 | 17.78° C | 82% | 1014 hPa | 0 mm | - | - | - |
| 1777625183 | 18.33° C | 82% | 1013 hPa | 0 mm | - | - | - |
| 1777624281 | 18.89° C | 82% | 1013 hPa | 0 mm | - | - | - |
| 1777623381 | 13.89° C | 79% | 1014 hPa | 0 mm | - | - | - |
* Rain latest hour (hover to see other rain measurements)
** Current wind speed in m/s (hover to see current wind gust speed)